ECMWFNIL_sfc_dewp_000.txt.gz
Dewpoint
74 69 72 73 72 70 72 70 71 63 68 68 69 67 69 69 69 70 69 70 69 69 69 69 69 69 68 69 70 69 70 69 69 70 70 70 70 67 65 66 67 69
68 68 70 72 72 70 71 68 68 70 66 67 68 69 68 69 68 69 70 68 69 67 68 67 68 69 69 68 69 69 70 69 68 68 69 69 71 69 64 64 65 67
68 68 67 66 66 66 64 67 69 66 69 68 67 67 66 66 68 71 70 69 68 67 68 68 67 68 68 69 69 69 67 69 69 69 71 69 68 66 65 62 65 64
69 68 66 65 67 64 67 68 69 67 67 69 67 67 66 65 67 67 68 67 68 68 67 66 67 66 68 68 69 69 68 69 68 69 69 69 68 67 66 66 65 65
69 68 68 67 67 68 69 66 65 65 65 67 65 69 68 70 69 67 67 67 68 66 65 66 67 67 68 68 68 69 68 70 70 70 69 69 70 67 66 67 66 65
69 69 70 69 68 68 66 65 66 65 68 63 68 67 68 68 69 66 66 65 62 62 63 64 65 66 66 67 69 69 70 70 68 69 67 67 67 68 66 66 66 65
68 68 67 67 66 67 67 67 67 68 66 66 67 67 68 66 66 67 67 66 65 65 64 65 66 66 66 67 67 68 69 69 68 68 68 67 69 69 66 66 67 64
68 66 67 68 66 67 67 66 67 68 67 67 65 66 67 64 66 65 65 66 64 65 66 66 66 67 64 64 65 66 68 65 65 67 66 66 67 67 67 64 65 64
68 67 67 67 66 66 61 60 61 65 65 64 64 64 66 66 66 66 67 66 65 65 66 66 67 66 66 65 65 66 66 65 65 65 67 66 64 65 66 66 65 63
67 68 65 61 59 63 60 59 58 60 64 65 65 64 64 67 67 64 64 65 65 64 64 66 66 68 68 66 66 66 66 65 65 66 66 65 65 65 65 65 63 62
64 64 63 64 61 57 57 56 55 55 62 61 62 62 65 63 65 68 67 64 63 64 65 65 66 69 68 66 66 68 66 65 66 65 64 65 66 65 63 64 63 61
65 63 62 62 62 60 59 60 60 62 59 56 59 59 64 61 63 61 61 63 65 64 64 65 65 69 68 68 68 64 64 65 67 68 67 65 64 65 64 63 63 62
63 64 64 61 65 64 63 61 57 55 55 58 56 55 55 57 58 60 62 64 64 64 64 65 65 64 67 69 68 68 68 68 67 65 66 66 65 64 62 61 61 61
64 65 64 66 66 69 67 65 64 65 66 66 64 62 57 58 56 60 61 61 62 63 64 64 64 64 69 70 67 66 66 65 64 64 63 64 65 65 63 60 60 60
67 66 66 67 66 67 66 66 66 66 66 66 66 64 62 60 60 61 63 63 62 62 62 63 63 65 66 66 66 65 67 65 64 62 62 64 64 63 62 60 60 60
68 68 68 67 67 66 67 66 65 66 64 65 65 64 66 65 66 66 60 58 60 62 64 63 63 64 66 65 64 66 66 65 63 62 62 63 63 63 61 60 59 59
68 67 67 67 67 66 67 66 66 66 66 67 67 67 66 67 64 61 58 60 60 58 59 62 62 63 61 60 61 62 65 66 64 63 62 61 60 59 59 59 60 60
67 67 67 67 67 68 67 67 66 67 67 67 67 66 67 66 63 63 64 65 61 59 61 62 64 62 58 59 60 60 62 65 64 61 60 59 59 59 59 59 60 60
67 67 67 67 67 67 68 67 67 66 66 66 65 67 67 65 65 62 62 63 63 65 63 64 63 61 58 58 58 59 61 63 64 63 62 61 62 61 61 61 62 63
67 66 66 67 68 67 67 67 67 67 67 64 65 67 65 63 62 63 64 64 64 67 68 66 64 61 57 56 57 58 60 61 64 63 63 63 63 62 61 63 65 63
67 67 66 67 67 67 67 66 67 67 67 65 63 63 63 64 63 63 66 63 64 65 65 62 55 60 56 56 56 57 57 59 62 63 64 65 65 64 64 64 63 63
66 66 66 66 67 67 66 66 68 68 67 69 67 65 62 61 61 61 61 60 64 65 62 62 60 56 56 56 55 55 57 61 63 63 64 64 63 63 63 66 66 64
65 65 65 65 66 66 65 64 64 65 65 65 65 61 59 60 61 60 61 61 64 64 65 65 64 61 54 54 54 54 56 62 63 63 63 63 64 63 62 63 64 64
64 64 64 65 65 64 64 66 65 65 65 69 65 60 59 57 58 63 61 67 62 59 57 61 59 58 54 53 53 54 57 61 63 64 64 64 63 62 64 63 62 65
65 65 65 65 65 65 63 61 63 66 68 63 60 61 60 62 60 57 62 60 53 51 59 59 55 58 53 54 54 53 58 62 64 64 63 63 64 63 62 60 61 62
65 67 66 64 64 64 64 68 67 68 60 61 61 58 57 57 58 57 61 57 55 54 53 54 55 57 63 55 53 53 54 62 65 64 62 62 62 62 61 61 64 61

ECMWFNIL_sfc_dewp_003.txt.gz
Dewpoint
62 65 66 62 66 65 66 69 66 65 67 66 65 65 64 66 66 65 67 67 67 65 66 66 67 66 68 67 67 67 67 67 67 67 67 66 67 66 65 64 64 65
64 66 68 67 67 67 65 62 66 62 64 65 65 65 66 66 66 66 66 65 66 65 65 65 65 66 66 66 66 66 66 66 66 69 67 66 67 66 65 64 63 64
65 65 65 64 65 63 61 62 66 64 63 63 64 66 66 66 64 65 65 64 64 64 65 65 65 65 66 66 66 66 66 65 66 67 68 67 66 65 64 64 64 63
65 63 61 62 64 63 64 65 62 64 64 63 63 63 64 66 64 62 64 69 65 65 66 66 64 64 64 64 65 66 65 65 65 67 66 66 66 65 64 64 64 63
63 64 63 63 64 64 63 61 62 63 63 64 65 65 65 64 64 65 65 65 65 65 64 64 64 65 66 66 66 65 65 66 67 66 65 64 65 66 65 65 63 62
64 64 64 64 64 65 63 62 62 61 63 63 63 67 66 66 65 65 65 64 64 62 62 62 63 64 64 64 64 65 65 66 67 66 65 65 65 66 66 65 63 62
65 64 63 63 64 65 62 61 61 64 63 62 65 63 64 64 64 64 64 64 64 64 63 63 64 64 65 65 64 64 65 67 66 66 65 64 65 65 65 64 64 63
64 64 63 63 63 63 64 63 64 64 63 64 62 63 65 64 63 64 64 64 63 63 64 64 63 63 63 63 63 63 64 65 65 64 63 63 64 64 65 65 63 61
63 63 63 63 63 63 62 63 64 63 64 63 63 64 64 63 64 63 63 64 64 62 61 62 64 64 64 64 64 63 63 64 65 63 63 63 64 64 64 63 61 61
64 64 63 63 62 63 62 61 62 61 63 63 63 63 62 64 64 64 64 62 61 61 62 62 62 62 64 64 63 63 63 63 63 63 64 65 64 63 63 62 60 60
64 64 63 63 61 62 61 59 58 58 64 63 62 62 61 61 62 62 61 60 61 61 62 62 63 63 64 64 63 64 63 63 62 62 63 62 62 63 64 63 61 60
62 62 62 61 60 60 59 58 58 59 58 60 58 57 58 59 58 60 62 61 59 58 59 61 62 62 64 64 64 63 63 62 64 64 65 64 64 64 63 64 62 60
61 61 60 60 61 60 60 60 59 56 56 57 58 55 55 58 60 60 61 60 61 62 62 62 63 62 60 65 64 63 63 63 63 63 63 63 63 64 64 63 62 61
60 61 60 61 62 62 62 60 59 60 61 62 62 60 59 59 58 59 59 61 62 62 61 62 60 63 65 64 64 64 63 63 62 62 61 60 60 61 63 63 63 62
61 61 61 62 64 64 63 62 61 62 62 63 64 62 62 60 60 60 60 61 61 61 60 60 64 64 65 64 62 62 63 64 64 63 62 61 60 60 61 62 62 62
62 63 62 63 63 62 61 61 61 62 62 62 62 62 62 62 61 62 62 61 59 58 60 62 63 63 64 63 64 64 63 64 64 63 62 61 61 61 61 61 61 60
63 63 63 63 63 62 62 62 61 62 63 63 63 63 63 63 63 62 61 59 58 59 58 62 62 63 62 61 61 63 63 62 62 63 63 62 61 59 57 57 58 58
63 63 63 63 63 62 62 62 63 63 63 63 63 63 64 63 63 62 61 60 60 57 57 62 61 61 60 59 60 60 62 62 62 62 62 60 59 58 58 58 58 59
62 62 62 62 62 62 62 62 62 63 63 63 63 63 64 64 63 62 61 61 59 57 56 60 59 61 59 58 58 59 60 61 61 62 62 61 61 60 60 60 60 61
62 62 61 62 62 62 62 62 62 62 62 61 62 64 64 63 62 62 61 60 59 58 59 61 61 61 58 57 57 57 58 60 60 61 61 61 61 61 62 61 61 61
62 62 62 62 62 62 62 62 62 62 62 62 62 62 63 62 61 60 60 61 60 61 61 62 63 59 56 55 55 55 56 59 58 59 59 60 61 62 62 62 61 61
62 62 63 62 63 62 62 62 62 61 62 63 64 63 62 61 61 61 60 60 59 60 62 61 62 58 55 55 54 55 57 58 58 58 59 60 61 62 62 61 61 62
62 62 62 62 62 62 62 61 61 61 62 63 63 63 61 60 59 58 59 58 59 61 61 61 60 57 54 53 53 54 55 57 58 59 60 60 61 61 61 61 61 60
62 62 61 61 61 61 62 61 61 62 61 62 60 59 58 57 57 59 60 60 58 56 60 60 60 60 55 52 53 53 55 58 58 58 59 60 61 62 62 61 61 63
62 62 61 60 60 60 60 61 61 61 61 62 60 59 58 59 60 59 60 57 55 57 61 57 58 57 52 53 53 53 57 59 60 60 61 61 61 61 61 61 60 61
62 62 61 60 60 60 60 60 61 61 62 63 61 60 59 60 59 61 58 57 56 57 60 59 58 58 60 52 53 53 55 58 59 59 60 60 60 61 61 60 60 59

ECMWFNIL_sfc_dewp_006.txt.gz
Dewpoint
61 61 62 62 62 65 66 63 63 62 62 61 61 63 64 64 65 64 64 66 66 65 65 65 66 66 67 66 66 66 66 65 65 65 65 65 64 64 64 63 63 64
61 64 65 63 65 65 64 64 63 61 62 63 62 62 63 65 65 65 65 65 66 64 64 64 64 64 63 64 64 64 64 64 65 67 65 64 64 64 64 63 62 62
62 64 64 63 63 62 60 61 63 61 62 62 62 62 63 65 63 63 64 64 64 63 64 64 63 64 64 64 64 64 64 64 65 65 66 65 65 65 65 63 63 62
62 63 63 62 63 62 61 61 63 62 61 61 62 63 65 64 64 63 64 68 64 64 64 64 64 63 63 63 63 63 64 64 65 64 65 65 65 65 64 64 63 62
62 62 61 62 62 62 62 62 61 61 61 61 62 63 65 63 63 62 62 63 63 63 63 64 63 63 63 63 63 63 64 64 65 64 64 64 64 65 64 64 63 62
62 61 61 61 62 63 62 62 61 61 61 61 62 64 64 63 62 63 64 63 63 63 62 62 61 62 62 63 62 63 63 64 64 65 64 63 63 64 65 65 63 61
62 61 61 61 63 63 62 61 61 62 61 61 62 63 64 64 64 64 63 63 62 63 62 61 61 61 62 62 62 62 62 63 64 64 64 64 64 64 64 64 63 62
62 62 61 62 63 63 61 60 60 61 61 62 61 61 63 63 62 62 63 62 62 62 63 63 63 62 63 62 62 62 62 63 63 63 64 64 63 63 64 64 63 62
62 62 62 62 62 62 61 60 60 60 62 62 62 61 63 62 62 62 62 62 62 62 62 62 62 62 62 62 62 62 61 61 63 63 63 62 62 62 63 63 63 63
62 62 61 60 60 61 61 60 60 61 62 62 62 61 61 63 63 62 62 62 62 62 62 61 60 61 61 62 62 62 62 62 62 62 62 62 62 62 63 62 62 61
62 61 61 60 59 60 60 60 60 60 61 62 62 62 62 62 63 63 62 62 62 61 60 59 59 60 60 61 62 63 62 62 62 62 61 61 61 62 63 62 62 61
62 61 61 60 59 60 60 60 60 60 60 62 62 61 62 62 61 61 62 61 60 60 60 60 61 61 61 61 63 63 63 62 62 61 61 61 62 62 62 62 62 62
61 61 61 60 61 61 61 61 60 60 59 60 62 61 60 60 59 58 60 60 60 60 60 60 60 61 61 63 63 63 62 62 61 61 62 62 62 63 62 62 63 63
61 61 61 61 61 62 61 61 61 60 58 58 60 58 57 57 57 58 59 61 60 60 60 62 61 60 61 62 63 62 62 61 61 61 61 60 61 61 61 62 62 62
63 62 61 62 62 62 61 61 60 60 59 59 59 57 58 56 57 59 59 59 60 61 61 61 60 62 63 63 62 62 62 62 61 61 61 61 61 61 60 60 60 61
62 62 61 61 61 61 61 60 60 60 59 60 60 60 60 61 60 60 59 59 59 60 59 59 60 61 63 63 63 62 61 62 62 61 61 61 61 61 61 60 60 61
62 61 61 61 61 61 61 61 61 60 60 60 60 60 60 60 62 60 60 60 60 60 59 60 61 62 61 60 61 63 63 61 61 62 62 62 62 61 61 61 59 58
62 61 61 60 61 61 61 61 61 60 60 60 60 60 61 62 61 61 61 61 61 60 58 58 60 61 59 59 60 61 63 63 61 61 61 61 60 60 59 58 58 59
61 61 61 60 60 61 61 61 60 60 60 60 60 60 61 61 61 62 62 61 61 60 59 58 58 59 59 59 59 59 60 61 60 60 60 60 59 59 59 59 60 60
62 61 61 60 60 61 61 61 60 60 60 60 60 61 61 61 62 62 62 61 61 60 60 58 57 58 58 58 58 58 58 59 59 59 59 58 59 59 59 59 60 60
63 62 61 61 61 61 61 60 60 60 60 60 60 60 61 61 61 62 62 62 61 61 59 58 58 57 57 57 56 55 56 59 58 58 57 57 57 58 59 60 60 61
63 62 61 61 61 61 60 60 60 60 60 60 60 60 60 61 61 62 61 61 61 60 60 58 59 59 57 56 55 54 56 58 57 56 56 56 58 59 59 60 60 60
62 61 61 61 61 60 60 60 60 60 59 60 60 60 60 60 60 60 61 60 60 60 60 60 60 59 56 54 54 54 55 55 55 56 57 57 58 58 59 60 60 60
61 61 61 60 60 60 59 59 59 59 59 61 60 59 60 60 60 59 59 60 59 60 60 60 59 59 54 52 52 54 56 55 55 56 56 57 58 59 59 58 60 63
61 60 60 59 59 59 59 59 59 60 60 61 60 60 59 59 60 58 59 58 57 59 63 59 58 55 52 52 52 52 56 55 55 56 57 58 58 58 57 58 58 59
60 60 59 59 59 59 59 59 60 60 60 60 60 59 59 59 60 59 57 57 59 58 58 57 56 56 58 51 52 52 54 56 57 57 57 57 56 56 56 56 56 57

ECMWFNIL_sfc_dewp_009.txt.gz
Dewpoint
61 62 60 60 60 62 64 63 63 62 61 61 59 60 64 63 65 64 64 64 65 63 63 63 64 65 66 65 65 65 65 64 65 64 64 64 63 62 64 63 62 64
61 62 64 61 62 65 64 63 62 61 61 61 60 62 63 63 64 64 63 64 65 64 63 63 63 63 62 63 63 63 62 63 63 66 64 64 64 63 63 63 62 62
61 61 62 60 61 64 63 62 62 61 60 60 61 62 62 64 63 63 63 64 64 64 62 62 62 63 63 62 63 63 63 62 63 63 64 64 64 63 64 64 62 62
60 61 60 60 61 62 62 62 61 60 60 61 60 62 62 63 64 63 63 68 63 62 62 62 63 62 62 63 62 62 62 62 63 63 63 64 65 64 64 64 63 62
60 60 60 60 61 61 61 61 61 59 60 60 60 61 64 63 63 62 62 62 64 62 62 63 63 62 62 62 62 62 62 63 63 62 62 63 64 64 64 63 63 62
60 61 61 61 61 60 60 59 60 60 59 59 59 62 62 62 62 62 62 61 62 63 62 62 61 62 61 62 61 62 62 63 63 62 62 63 63 63 64 63 63 62
60 61 60 61 61 60 60 59 59 61 59 59 60 61 62 62 62 62 62 62 62 63 62 61 60 60 61 61 60 61 61 62 61 61 62 63 63 63 63 63 63 63
59 60 60 61 61 61 60 60 60 60 60 60 60 60 62 62 62 62 63 62 61 61 61 61 61 61 62 61 62 61 61 61 62 61 62 63 62 62 63 63 63 63
59 59 60 60 60 61 60 60 60 61 61 60 60 60 62 62 62 62 62 62 61 61 61 61 61 62 62 61 61 60 60 61 62 61 61 61 61 61 62 61 61 62
60 60 60 60 60 62 61 60 60 60 62 60 60 60 61 62 62 61 61 61 61 61 61 61 61 61 61 60 60 61 61 61 61 61 61 61 61 61 61 61 61 61
61 64 64 63 61 62 62 61 59 59 61 60 60 61 61 61 63 62 61 61 61 61 61 61 61 61 60 59 59 60 61 61 61 61 61 60 60 60 62 61 61 61
64 64 64 63 62 61 61 60 59 59 60 61 61 60 61 61 61 62 63 61 61 61 61 61 60 60 59 59 60 60 61 61 62 61 61 60 60 60 60 61 61 61
65 64 64 63 62 61 61 60 60 59 59 60 62 61 60 61 61 61 63 62 61 61 60 60 60 59 59 59 60 61 61 61 61 61 61 61 61 61 61 61 61 61
64 63 63 62 61 61 60 60 60 60 60 60 61 61 60 60 60 61 60 61 60 60 60 60 59 59 59 60 61 61 61 61 61 61 60 60 60 60 61 61 61 61
65 64 63 64 63 62 61 61 61 60 60 60 61 61 61 60 60 60 59 59 59 59 59 60 60 60 60 60 60 60 60 61 61 61 60 60 60 60 59 60 60 60
64 64 63 64 63 62 61 61 61 61 60 60 59 59 59 59 58 58 58 58 58 59 59 60 60 60 62 61 62 61 60 61 61 60 60 60 60 60 60 60 60 60
64 64 64 63 63 62 62 61 61 61 61 60 59 59 58 58 58 57 57 58 58 58 58 59 60 60 60 60 61 62 62 60 60 60 60 60 60 60 60 60 60 60
64 63 63 63 63 62 61 61 61 61 60 60 59 59 59 59 59 58 59 59 59 59 59 59 59 60 59 59 60 61 62 62 60 60 60 60 59 59 59 59 59 58
63 63 63 62 61 62 62 62 61 61 60 60 59 59 59 59 59 60 60 60 60 60 59 60 60 60 58 59 59 59 60 61 60 60 59 59 59 59 59 58 58 58
64 62 62 62 62 62 61 61 61 60 60 60 60 60 59 59 59 59 60 60 60 60 60 60 60 59 58 57 57 58 58 60 60 59 59 58 58 58 58 57 57 58
63 63 62 62 62 62 61 61 61 60 60 60 60 59 59 59 59 59 59 60 60 61 61 60 61 58 57 56 56 56 57 59 58 58 58 58 57 57 57 57 57 58
63 63 63 63 62 61 60 60 60 60 60 60 60 59 59 59 60 59 59 60 60 61 61 61 61 58 57 56 55 55 57 59 57 57 57 56 56 56 57 58 58 58
63 63 63 62 62 61 60 60 60 60 60 60 60 59 59 59 59 59 60 60 60 61 61 60 60 59 56 54 54 55 56 57 56 56 55 55 56 56 56 57 58 58
63 63 63 62 62 61 60 60 60 60 60 61 60 59 59 58 59 59 60 60 60 60 60 60 60 59 56 54 54 55 56 56 55 55 54 55 55 55 56 56 58 62
64 64 64 62 62 61 61 60 60 60 60 60 60 59 59 59 60 59 59 59 60 60 62 60 59 58 55 54 53 53 56 54 55 55 54 55 55 56 55 55 56 58
64 64 63 62 62 62 61 61 61 60 60 60 60 59 59 59 60 59 58 58 58 60 61 60 59 58 59 51 50 51 55 56 55 54 55 55 54 55 56 54 54 54

ECMWFNIL_sfc_dewp_015.txt.gz
Dewpoint
76 76 75 74 73 72 71 71 70 70 71 69 68 68 68 69 70 70 70 70 70 68 69 69 69 68 67 69 69 69 68 68 67 67 67 67 66 66 65 65 66 67
75 75 74 73 73 71 71 70 70 70 70 70 69 69 70 70 69 70 69 69 70 68 69 68 69 68 68 66 69 68 68 68 67 67 67 67 67 66 65 66 65 66
75 74 73 72 71 70 69 69 69 69 69 68 69 70 69 69 69 70 70 69 68 67 68 69 68 69 68 68 69 68 67 68 67 66 69 68 67 67 67 63 65 66
74 73 71 71 70 70 69 68 68 69 69 69 68 68 68 68 69 69 70 70 68 68 67 67 67 66 68 68 68 67 67 68 66 68 68 68 68 67 66 66 65 65
72 71 71 70 69 70 69 68 66 67 67 67 68 69 69 69 69 69 69 69 69 68 68 68 68 67 68 68 68 67 67 66 67 69 67 66 67 67 65 67 67 66
71 71 70 70 69 70 68 67 67 67 66 67 68 68 68 68 68 68 68 67 66 65 66 67 68 66 67 67 68 67 66 64 64 68 67 66 64 65 66 67 67 66
70 70 69 68 68 68 68 68 68 68 67 67 68 68 68 68 68 68 68 67 66 67 66 67 68 67 67 68 68 67 68 67 67 68 67 66 67 66 67 67 67 67
70 68 67 67 67 68 67 67 67 68 68 68 67 67 68 67 68 68 68 68 66 68 68 68 68 69 66 67 67 67 66 66 66 67 67 67 67 66 66 66 67 67
68 67 67 66 66 67 63 64 66 67 67 66 65 65 67 67 67 67 68 68 67 67 68 68 68 68 67 67 67 67 66 65 66 66 66 65 65 65 65 67 67 67
68 66 65 63 63 64 62 62 63 65 66 65 64 63 65 66 66 66 67 67 67 67 67 67 67 67 67 67 67 67 67 66 67 67 66 66 65 65 65 67 66 65
66 66 65 64 62 61 61 61 61 61 64 63 64 63 65 64 65 65 66 66 66 66 67 67 67 67 67 67 67 67 67 66 67 67 67 67 66 66 66 66 66 65
66 67 65 64 62 61 61 61 60 63 64 65 65 65 64 64 64 64 65 66 66 67 67 67 68 68 68 67 66 66 67 66 66 67 66 66 66 66 66 67 65 65
67 67 66 64 66 66 65 63 62 63 63 64 66 64 63 62 63 63 65 65 66 66 66 67 67 67 67 68 67 68 67 67 66 67 66 66 66 65 65 65 66 66
68 68 67 66 66 67 67 65 64 66 67 67 66 64 64 64 64 62 63 64 65 65 66 67 67 67 67 67 67 67 67 67 67 66 65 66 66 66 65 64 65 65
68 68 68 67 66 66 67 66 68 68 66 66 65 64 64 65 62 62 62 64 64 65 66 66 66 66 66 67 67 67 67 66 66 66 66 66 66 65 65 66 66 65
68 69 68 68 66 67 68 67 66 65 64 65 64 64 64 65 65 63 62 63 64 65 65 66 66 66 64 61 63 66 67 67 66 66 66 66 66 65 65 65 65 64
68 68 68 68 67 69 67 65 64 64 64 64 65 64 64 65 64 63 62 62 63 63 64 65 65 65 61 60 60 61 65 66 66 66 66 66 65 65 65 64 65 66
67 68 68 68 67 67 67 65 64 63 62 63 64 64 64 64 64 63 64 63 63 63 63 64 65 61 59 59 60 60 61 65 65 65 65 65 65 65 65 65 64 64
68 67 68 67 67 66 65 63 63 62 60 61 63 64 64 63 63 63 64 64 64 64 63 63 63 61 59 58 59 59 59 61 64 65 65 65 65 66 65 66 66 65
68 67 67 67 66 65 64 62 61 60 61 64 64 64 64 63 63 64 64 65 64 65 65 64 64 60 58 57 57 57 58 60 64 66 66 66 66 66 66 66 65 64
67 67 67 67 66 65 64 63 62 63 64 65 64 64 63 63 63 64 64 64 64 64 64 63 62 59 57 56 55 55 57 59 64 66 66 66 66 66 66 64 64 64
67 66 66 66 65 64 64 63 63 64 64 65 64 63 63 63 63 64 63 63 64 64 62 63 61 57 56 56 55 55 57 62 64 65 65 65 65 65 65 65 65 65
66 65 65 65 64 64 63 63 63 64 64 65 64 63 62 62 62 62 64 63 64 64 64 64 63 60 55 54 54 55 57 63 65 64 65 64 64 64 65 65 65 64
66 65 65 65 64 63 63 64 63 64 64 64 63 62 61 61 62 62 63 64 63 63 62 63 63 62 56 54 54 55 58 64 65 65 63 63 63 63 64 64 64 63
65 65 65 64 64 64 65 64 64 64 64 64 63 63 63 63 63 63 63 64 62 62 64 62 63 60 55 55 54 54 58 64 64 64 64 63 63 63 64 63 64 63
65 65 65 64 64 65 66 65 65 64 64 63 63 62 62 62 63 63 63 63 62 62 62 63 62 64 62 53 52 52 55 64 65 63 63 62 63 62 62 63 63 64

ECMWFNIL_sfc_dewp_021.txt.gz
Dewpoint
75 75 74 73 73 72 72 72 72 72 72 70 70 70 69 70 70 69 68 68 69 68 67 68 67 68 66 66 66 66 66 65 65 64 65 65 64 62 61 61 61 62
75 75 75 74 74 73 73 72 73 73 73 72 71 70 70 70 68 68 69 68 69 68 68 67 68 68 67 65 66 65 66 66 64 63 64 64 64 63 61 62 62 63
75 75 74 74 72 73 72 73 73 73 71 71 71 71 70 70 70 69 69 68 69 66 67 68 68 67 66 66 66 65 65 66 65 62 64 64 63 63 64 57 59 60
76 76 74 74 73 73 73 73 73 73 71 70 70 70 70 70 69 68 69 69 68 66 66 67 67 66 67 66 67 65 65 66 65 64 63 64 65 64 64 64 62 61
76 76 75 74 74 74 74 73 72 72 71 70 70 72 72 71 70 69 69 67 67 66 67 67 66 66 67 66 66 66 65 64 65 66 65 64 65 64 64 64 63 62
77 77 77 75 75 75 74 73 73 71 71 68 71 71 71 70 69 68 68 66 64 64 65 66 66 65 65 66 67 67 65 63 63 64 63 63 63 63 61 62 62 62
76 77 77 75 74 74 74 74 75 73 72 70 72 72 71 69 69 68 68 66 64 66 65 66 67 66 66 66 68 68 68 67 65 65 64 63 64 63 61 62 63 63
76 76 76 76 75 74 75 75 74 74 74 72 72 72 71 68 68 67 67 67 65 66 67 67 68 68 65 66 66 67 67 65 65 66 65 64 64 64 63 62 63 63
75 76 77 76 75 74 72 72 73 73 73 72 72 70 70 69 68 66 67 67 67 67 67 67 69 67 66 66 66 66 67 65 64 65 64 63 63 63 63 63 63 63
76 76 75 74 73 73 71 71 70 72 73 72 71 69 69 70 69 67 67 68 66 67 68 67 68 67 67 67 66 65 66 67 68 66 64 63 63 63 62 62 62 63
75 74 75 75 73 71 70 69 67 69 72 71 70 68 69 69 69 68 68 68 66 67 67 67 67 67 67 66 65 65 66 66 66 65 64 63 63 63 62 63 63 62
75 75 75 74 72 70 69 69 66 70 71 70 70 68 69 68 68 66 67 69 69 67 66 68 68 68 68 66 64 64 66 65 65 64 63 64 63 62 62 63 63 63
75 75 74 73 73 72 70 69 67 68 68 69 69 68 67 67 66 67 68 69 68 64 65 68 67 67 67 67 66 66 66 65 64 64 63 63 62 61 61 61 61 61
75 76 76 76 74 74 73 71 69 67 67 69 70 67 65 66 65 66 68 69 66 65 68 69 68 65 65 67 67 65 65 65 65 64 62 63 63 62 62 60 60 59
77 77 76 76 74 74 73 72 72 70 68 68 70 69 66 65 66 67 69 69 69 69 69 68 65 63 65 66 66 65 65 64 65 65 63 63 63 62 62 62 61 60
77 77 77 76 75 74 74 74 72 71 68 69 70 69 68 67 69 69 67 66 66 67 66 64 64 65 63 60 63 65 66 65 65 64 64 64 63 63 62 61 61 59
77 77 76 76 75 75 74 74 73 72 72 73 72 70 69 69 68 66 66 65 68 67 64 63 62 61 60 60 61 63 65 65 64 64 64 64 64 64 63 63 62 61
76 76 76 76 76 75 74 74 73 73 72 72 70 69 69 69 66 68 68 66 65 63 61 62 62 59 59 59 60 61 63 66 63 63 63 64 64 63 62 62 62 60
77 76 76 75 75 75 75 74 74 73 73 72 71 70 69 70 69 68 65 64 64 63 60 61 60 59 58 59 60 60 61 63 62 63 62 62 62 61 61 62 63 68
76 76 76 76 75 74 74 73 73 73 72 71 71 71 72 71 69 67 66 66 64 64 62 60 61 58 58 58 59 59 60 61 63 61 61 61 61 61 60 62 70 67
76 76 76 75 74 73 73 72 72 73 72 71 69 69 70 70 68 67 66 65 62 61 61 60 60 58 57 57 57 57 58 60 64 63 63 63 62 62 62 62 67 66
76 75 76 75 73 72 72 72 72 72 72 71 70 69 70 68 67 65 65 64 63 63 62 63 60 57 57 57 57 57 59 64 65 66 65 63 63 63 63 66 68 66
76 75 75 74 73 72 72 72 72 72 71 71 70 68 67 67 66 64 65 63 64 64 63 63 61 61 56 55 56 56 58 64 65 65 65 65 64 65 66 68 68 67
76 75 75 74 73 72 72 70 71 70 70 71 69 67 66 65 65 64 64 65 63 63 62 62 61 64 55 54 54 55 60 65 66 65 66 67 67 67 68 68 67 66
76 75 75 74 73 72 70 70 70 70 70 70 68 68 67 68 66 65 63 63 60 59 64 62 60 61 54 54 53 54 61 66 66 65 67 66 66 67 67 67 68 66
75 75 75 74 73 72 70 70 70 69 68 68 67 67 66 65 65 64 64 62 61 61 60 61 61 64 60 53 53 53 56 67 68 66 63 66 66 66 66 67 66 65

ECMWFNIL_sfc_dewp_024.txt.gz
Dewpoint
76 76 76 76 76 74 75 75 74 74 74 73 73 73 73 73 73 73 72 71 71 71 72 71 71 70 70 71 72 73 76 68 70 68 69 70 68 67 66 66 65 68
76 76 76 76 76 75 76 75 75 74 75 75 74 74 74 73 73 73 72 71 71 70 71 70 70 71 70 69 70 69 71 70 69 67 68 68 70 69 64 69 66 68
76 76 76 75 75 75 72 74 75 75 74 74 74 74 73 72 71 73 72 71 70 68 71 70 70 70 69 70 69 68 68 70 69 66 69 68 69 68 68 61 64 64
76 76 75 74 74 74 74 74 75 75 74 73 73 72 71 70 71 70 72 71 71 70 69 69 69 68 69 69 68 68 68 69 68 69 72 69 67 68 68 67 67 69
76 76 75 74 74 75 75 74 72 74 72 73 72 73 73 73 72 70 71 70 71 70 70 69 69 68 69 68 69 68 68 68 68 69 69 70 69 68 67 68 68 68
76 76 76 75 75 75 74 73 73 72 72 71 72 72 72 73 71 70 70 69 69 67 67 67 68 67 68 68 69 69 67 66 66 68 68 67 68 66 66 67 66 66
76 76 76 75 74 75 75 74 74 73 72 71 73 72 72 72 71 70 70 69 68 68 66 67 68 68 68 68 68 68 69 68 67 67 66 67 67 67 65 66 67 66
75 75 75 75 74 74 74 74 74 73 73 73 72 72 72 71 71 70 70 70 68 68 68 68 68 69 67 68 68 68 68 67 67 68 67 66 65 65 66 65 66 67
75 76 76 75 73 73 71 71 73 74 74 73 71 71 72 71 71 70 71 70 68 68 68 68 69 68 68 68 67 68 67 66 66 67 67 65 65 65 65 66 65 66
76 76 74 73 72 72 70 70 71 72 73 73 71 70 72 72 72 70 71 70 68 68 68 68 69 68 68 68 68 68 67 67 66 66 66 66 65 65 65 65 65 65
74 74 75 74 73 72 71 70 71 71 72 71 70 69 72 72 72 71 71 70 67 67 68 68 68 68 68 67 68 67 67 67 67 67 67 66 66 66 66 65 64 64
73 74 74 74 73 71 71 70 70 71 72 72 71 70 72 71 71 69 69 69 68 68 68 68 69 69 69 67 66 67 67 67 67 68 67 67 66 66 66 66 65 65
74 74 74 74 74 73 71 71 70 70 71 71 71 71 71 70 70 70 69 69 68 68 68 68 69 69 69 68 68 68 67 67 66 67 66 66 66 65 64 64 64 65
75 74 74 75 75 75 73 71 71 70 71 73 72 71 70 70 70 69 69 68 68 68 68 69 69 68 69 69 69 68 67 67 67 66 65 65 65 64 63 62 63 63
75 75 74 75 75 75 74 73 72 72 72 73 73 72 70 69 69 69 69 69 68 68 69 68 67 68 68 68 68 68 67 66 66 66 65 65 64 64 63 63 63 62
76 76 75 76 75 75 75 74 72 72 71 73 73 72 72 71 71 70 68 68 68 69 69 68 67 68 66 63 65 66 66 65 66 66 66 65 65 64 63 63 63 61
76 76 76 76 76 76 75 74 74 73 73 73 74 73 72 72 72 70 68 68 69 68 66 66 68 67 61 61 62 63 65 66 66 66 66 66 65 65 64 64 63 64
77 77 77 77 77 76 76 75 75 75 74 74 73 73 73 72 71 70 69 69 69 66 63 65 68 64 59 59 61 61 64 66 66 66 66 66 65 64 65 64 64 63
77 78 78 78 77 77 76 76 76 75 75 75 74 74 74 73 72 70 70 70 69 68 65 67 68 60 59 59 60 60 61 65 65 66 65 65 65 65 65 65 66 65
78 78 78 78 78 78 77 76 76 75 74 75 74 74 73 72 71 71 71 70 69 69 68 67 65 59 58 57 58 58 60 62 67 66 65 64 65 65 64 64 66 69
78 78 78 78 78 77 77 76 76 76 75 74 72 72 72 71 70 70 70 70 68 68 68 65 63 57 56 56 56 57 58 60 66 66 66 66 65 64 63 63 69 68
78 78 78 77 77 77 76 76 76 76 75 74 73 73 72 71 71 69 69 69 68 67 65 64 61 56 55 56 55 56 58 64 65 65 65 65 65 66 65 68 68 69
78 77 77 77 76 76 75 75 75 75 75 74 72 71 71 71 71 69 70 67 67 67 65 64 61 57 55 54 55 55 57 63 63 64 64 64 64 65 66 67 69 69
78 77 77 76 75 74 74 73 73 73 73 74 72 69 67 68 69 70 69 68 66 65 63 63 60 59 53 53 53 54 58 62 63 64 63 63 64 64 65 67 69 70
77 77 77 75 75 74 73 72 71 72 72 72 70 70 69 70 69 69 68 68 65 64 64 62 62 62 53 53 53 53 58 63 64 64 63 63 64 64 66 69 67 68
76 77 76 75 75 74 73 73 72 70 71 70 70 69 70 69 69 68 67 65 64 64 65 63 62 68 59 52 52 53 56 64 65 64 63 64 64 66 66 66 67 66

ECMWFNIL_sfc_dewp_027.txt.gz
Dewpoint
74 74 73 72 72 72 71 70 72 71 71 71 71 70 72 70 70 71 70 70 70 70 69 67 66 64 65 68 68 68 67 65 66 65 66 65 64 65 65 63 65 65
74 74 74 73 73 73 72 71 72 72 71 71 71 71 71 70 70 71 70 69 70 69 67 67 66 65 66 66 66 67 67 65 66 67 65 66 64 63 64 63 63 62
74 74 73 73 73 72 72 72 72 72 72 72 71 72 71 71 70 71 70 70 69 68 67 66 67 66 67 66 66 66 66 65 65 65 65 65 65 64 64 63 62 64
74 73 73 73 73 72 72 72 72 72 72 72 71 72 71 71 71 70 69 71 68 68 67 66 66 67 67 67 66 65 66 66 65 65 65 65 65 63 64 64 64 62
73 73 73 73 74 72 72 72 72 71 72 72 72 71 72 70 70 70 69 69 67 68 68 66 66 67 67 67 66 65 66 66 66 66 66 65 64 64 64 65 64 64
73 74 74 74 74 73 72 72 72 71 71 72 72 71 71 70 69 70 70 68 67 67 67 67 66 66 67 67 65 65 65 65 65 66 65 66 64 64 64 64 64 64
73 73 73 73 73 73 72 72 72 72 71 71 72 71 70 70 68 69 69 68 67 67 67 67 66 66 67 66 66 65 65 66 65 65 65 65 66 64 64 63 63 62
73 73 73 73 73 73 72 72 72 72 72 71 71 71 70 70 69 68 69 68 67 67 67 66 67 66 66 65 67 64 64 66 65 65 65 65 65 64 64 64 64 63
74 73 73 73 73 72 72 72 71 72 72 71 71 71 71 70 70 68 68 68 67 67 67 66 67 66 66 65 66 65 64 65 65 64 64 64 64 63 64 64 64 64
73 73 73 73 72 72 72 72 71 71 72 71 71 71 70 70 70 69 68 67 67 67 66 66 66 66 66 65 65 65 65 65 65 64 64 64 64 63 63 64 62 62
73 73 73 73 72 72 72 72 71 71 71 71 71 70 70 70 70 69 68 68 67 67 66 66 66 66 66 65 65 65 65 65 65 64 64 65 64 63 66 63 63 62
73 73 73 73 72 72 71 71 71 71 71 71 71 70 70 70 70 69 68 68 67 67 66 66 66 66 66 66 65 65 65 65 65 64 64 65 65 64 64 64 63 63
73 73 73 73 73 72 71 71 71 71 71 71 71 70 70 70 70 69 69 68 68 67 66 66 66 66 66 66 66 65 65 65 65 65 64 65 65 64 64 64 64 63
72 73 73 73 73 72 72 71 70 70 71 71 71 70 69 70 70 70 69 69 68 67 66 66 66 66 66 66 66 66 65 65 65 65 64 65 65 64 64 64 64 64
72 72 73 73 73 73 72 71 71 70 71 71 71 70 70 70 70 70 69 69 68 67 66 66 66 67 66 66 66 66 66 65 65 65 65 65 65 65 64 63 63 64
72 72 73 73 73 73 73 72 71 71 71 71 71 70 70 70 71 70 69 69 68 67 66 66 66 67 65 62 63 66 66 66 65 65 65 65 65 64 64 63 63 62
72 72 73 73 73 73 73 72 71 71 71 72 72 71 70 70 71 70 69 68 68 67 66 66 66 66 62 61 62 63 65 65 65 65 65 65 64 64 63 63 63 62
72 72 72 73 73 73 73 73 72 71 71 71 72 71 71 71 70 70 69 68 68 67 66 66 66 63 60 61 62 62 64 66 64 64 65 64 64 64 63 63 62 62
73 73 72 72 73 73 73 73 72 72 71 71 72 72 71 71 70 70 69 68 68 67 66 66 66 62 60 60 61 61 62 63 63 63 64 64 64 64 63 63 63 63
73 73 73 72 72 73 73 73 72 72 71 71 72 72 71 71 70 70 69 68 68 67 67 66 66 61 59 59 60 60 61 62 61 63 64 64 64 64 64 64 63 63
73 73 73 73 73 73 73 73 73 72 72 72 72 72 71 71 70 69 69 68 68 68 67 66 66 60 58 58 58 59 59 62 62 64 64 65 65 65 65 64 64 64
73 73 73 73 73 73 73 73 73 72 72 73 72 72 71 71 70 69 68 68 68 68 67 66 65 58 57 57 57 58 59 63 62 62 64 64 65 65 65 64 64 64
73 73 74 74 74 74 73 73 73 73 73 72 71 71 71 70 69 69 69 68 68 68 67 67 65 58 56 55 56 56 58 63 61 61 63 65 65 65 65 65 66 65
74 74 75 75 75 74 74 74 74 73 73 72 71 70 70 70 69 69 69 69 68 68 67 67 62 58 54 54 54 55 58 62 62 61 62 63 64 64 64 64 67 70
75 75 75 75 75 75 74 74 74 73 73 72 71 70 70 70 69 69 68 68 67 66 66 64 62 58 53 54 54 54 58 62 62 61 61 62 63 63 63 64 65 67
76 75 75 75 75 74 74 74 73 73 73 71 70 70 70 70 70 69 68 67 66 66 65 64 62 60 57 52 52 52 55 61 61 60 59 60 61 62 62 64 65 65

ECMWFNIL_sfc_dewp_030.txt.gz
Dewpoint
71 70 70 71 71 71 71 71 71 71 71 71 71 71 71 70 71 70 70 70 69 68 69 68 67 65 66 65 66 66 66 66 66 65 65 65 64 64 63 63 63 61
71 71 71 71 71 72 71 71 71 71 71 71 70 70 71 70 70 70 70 69 69 68 68 68 66 64 66 65 65 65 66 65 65 66 65 64 63 63 63 63 64 62
71 71 72 71 71 71 71 71 71 71 71 70 70 70 71 70 70 70 70 70 69 69 69 68 66 64 65 65 65 65 65 65 64 65 65 64 63 63 63 63 62 61
72 72 72 72 71 71 72 71 71 71 71 70 70 70 71 70 70 70 70 71 69 69 69 67 65 63 64 65 65 65 65 64 64 65 65 65 64 63 63 63 63 62
72 72 72 72 72 72 72 71 70 71 70 70 70 70 71 71 70 70 70 70 69 69 68 67 65 63 64 64 65 65 65 64 64 65 64 63 64 64 63 63 63 61
72 73 73 73 72 72 71 71 70 71 70 70 70 71 70 71 70 70 70 69 69 68 67 66 65 63 65 64 64 64 65 64 64 65 64 63 63 64 64 63 63 62
72 73 73 73 73 72 71 71 71 71 71 70 71 71 70 70 70 70 70 69 69 68 66 65 65 64 65 65 64 63 64 64 64 64 64 63 63 63 63 63 63 62
73 73 73 73 73 72 72 71 71 71 71 71 71 70 71 70 70 70 70 69 68 68 67 65 65 65 65 65 64 63 63 64 64 64 64 64 64 63 63 63 63 62
73 73 73 73 72 72 72 71 71 71 71 71 71 71 71 70 69 70 69 69 68 67 67 66 65 65 65 65 65 64 63 64 64 63 63 63 63 63 63 63 62 62
73 73 73 73 72 72 72 71 71 71 71 71 71 71 70 71 70 69 69 69 68 67 66 66 66 65 65 65 65 64 63 63 64 63 63 63 63 63 63 63 62 62
73 73 73 72 72 72 72 72 71 71 71 71 71 71 71 70 70 69 69 69 68 67 66 66 66 66 65 65 65 65 64 63 64 63 63 63 63 63 65 63 63 62
73 73 73 72 72 72 72 72 71 71 71 71 71 71 71 70 70 69 68 69 68 67 67 66 66 66 66 65 65 65 65 64 64 64 64 63 63 63 64 63 63 62
73 73 73 72 72 72 72 72 72 71 71 71 71 70 70 70 70 69 69 68 68 68 67 67 66 66 66 66 65 65 65 64 64 64 64 64 64 64 63 63 63 63
73 73 73 73 72 72 72 72 72 71 71 71 71 71 70 70 70 70 69 68 68 68 67 67 66 66 66 66 66 65 65 64 64 64 64 64 64 65 64 64 63 63
73 73 73 73 73 72 72 72 72 72 71 71 71 71 71 70 70 70 69 69 68 67 67 67 66 66 66 66 66 65 65 64 64 64 64 64 64 64 65 64 64 63
73 73 73 73 73 72 72 72 71 71 71 71 71 71 71 70 70 70 69 69 68 68 67 67 67 66 65 61 63 65 65 65 65 64 64 64 64 64 64 64 64 64
73 73 73 72 72 72 72 72 71 71 71 71 71 71 71 70 70 70 70 69 69 68 67 67 67 66 62 60 61 63 65 65 65 64 64 64 64 64 64 64 64 64
72 72 72 72 72 72 72 72 72 71 71 71 71 71 71 70 70 70 70 69 69 68 68 67 67 63 60 60 61 61 63 66 65 65 65 64 64 64 64 64 64 64
72 72 72 72 72 72 72 72 72 71 71 70 70 70 71 70 70 70 70 70 69 69 68 68 67 62 60 59 60 60 61 64 65 65 65 64 64 64 64 64 64 64
72 72 72 72 72 72 72 72 72 71 71 70 70 70 70 70 70 69 70 70 69 69 68 68 68 62 59 58 59 59 60 62 65 65 65 64 64 64 64 64 64 63
72 72 71 72 72 72 72 72 72 71 71 71 70 70 70 70 70 69 69 70 69 69 68 68 68 61 58 57 58 58 59 61 65 65 64 64 64 64 64 64 64 64
72 71 71 71 71 72 72 72 72 72 71 71 71 71 71 71 70 70 69 69 69 69 68 68 68 59 57 57 57 57 59 63 65 64 63 63 64 64 65 65 64 64
72 71 71 71 71 71 71 72 72 72 72 71 71 71 71 71 70 70 70 69 69 69 68 68 67 59 56 56 56 57 58 64 65 64 63 63 63 64 64 65 65 65
72 71 71 71 71 71 71 71 72 72 72 71 71 70 70 71 71 70 70 70 69 69 68 68 66 58 55 55 55 56 59 64 65 64 63 63 63 64 65 65 66 68
71 72 71 71 71 71 71 71 72 72 72 72 71 71 71 71 71 70 70 69 69 69 67 67 64 58 54 55 55 55 60 64 65 64 63 62 64 64 63 64 65 69
71 72 72 72 71 71 71 71 72 72 72 72 71 71 71 71 70 70 69 69 68 68 68 66 64 61 58 54 54 54 56 64 64 63 62 62 62 63 63 63 63 63

ECMWFNIL_sfc_dewp_033.txt.gz
Dewpoint
70 70 69 69 69 69 69 70 70 70 71 71 71 72 72 72 73 72 71 71 71 70 69 68 68 67 66 66 66 66 66 65 65 64 63 64 63 63 62 63 62 62
70 70 70 70 70 70 70 70 70 70 70 71 71 72 72 72 72 71 71 71 71 70 69 68 68 67 66 65 66 65 65 65 65 66 64 64 64 63 62 62 63 62
70 70 69 69 69 70 70 70 70 70 70 71 71 71 72 72 71 71 70 70 70 69 69 68 68 67 66 65 65 65 65 65 64 65 65 64 64 63 62 62 63 62
70 70 69 69 69 70 70 70 70 70 70 70 71 71 71 71 71 71 70 71 69 69 68 68 68 67 66 65 65 65 65 65 65 65 65 65 64 63 62 63 63 63
70 70 70 69 69 70 70 70 70 70 70 70 71 71 71 71 71 71 70 70 69 69 68 68 68 67 66 65 65 64 64 64 64 64 64 64 64 63 62 63 63 62
70 70 70 70 70 70 70 70 70 70 70 70 70 71 71 71 70 70 70 70 69 69 68 68 68 67 65 64 65 64 64 64 64 64 64 64 64 64 63 63 62 62
70 70 70 70 70 70 70 70 71 71 70 70 71 70 70 70 70 70 70 70 69 69 68 68 68 67 65 64 64 64 64 64 63 64 64 63 64 63 64 63 62 62
70 70 71 71 70 70 70 70 70 71 71 71 70 70 70 70 70 70 70 70 69 69 69 68 68 67 65 64 63 63 63 64 63 63 63 63 63 62 63 63 62 62
70 70 71 71 71 71 70 70 71 71 71 71 70 70 70 70 70 70 70 70 69 69 69 68 68 67 66 64 63 63 63 63 64 63 63 63 62 62 62 63 62 62
70 70 70 71 71 71 71 71 71 71 71 71 70 70 70 70 70 70 70 69 69 69 69 68 68 67 66 65 64 63 62 63 63 63 63 63 63 62 62 62 62 62
70 70 70 70 71 71 71 71 71 71 71 71 70 70 70 70 70 70 69 69 69 69 68 68 68 67 66 65 64 64 63 62 63 63 63 63 63 63 65 62 62 62
71 71 70 70 71 71 71 71 71 71 71 71 70 70 70 70 70 70 69 69 69 69 69 68 68 67 66 65 64 64 63 63 62 63 63 63 63 63 63 63 63 62
71 71 71 71 71 71 71 71 71 71 71 70 71 70 70 70 70 70 70 69 69 69 69 68 68 67 66 65 65 64 64 63 63 63 63 63 63 63 63 63 63 63
71 71 71 72 72 72 71 71 71 71 71 71 71 70 70 70 70 70 69 69 69 69 69 68 68 67 66 66 65 65 64 64 64 63 63 63 63 63 63 63 63 63
71 71 72 72 72 72 72 72 72 72 71 71 71 70 70 70 70 70 70 69 69 69 69 68 68 67 67 66 65 65 65 64 64 64 63 63 63 63 63 63 63 63
71 72 72 72 72 72 72 72 72 72 72 71 71 71 70 70 70 70 70 69 69 69 69 68 68 67 65 61 63 65 65 65 65 64 64 63 63 63 63 64 63 63
71 72 72 72 72 72 72 72 72 72 72 71 71 71 71 70 70 70 70 70 69 69 68 68 68 67 62 60 61 62 65 65 64 64 64 64 64 63 63 63 64 64
71 72 72 72 72 72 72 72 72 72 72 71 71 71 71 71 70 70 70 70 70 69 68 68 68 63 61 60 60 61 63 66 65 64 64 64 64 64 63 63 63 64
72 72 72 72 72 72 72 72 72 72 71 71 71 71 71 71 70 70 70 70 70 69 69 68 68 63 60 59 60 60 61 64 65 65 64 64 64 64 64 63 64 64
72 72 72 72 72 72 72 72 72 71 71 71 71 71 71 70 70 70 70 70 70 69 69 69 68 63 59 58 59 59 60 62 65 65 65 64 64 64 64 64 64 64
72 72 72 72 72 72 72 72 72 72 71 71 71 71 70 70 70 70 70 70 70 70 69 69 69 62 58 57 57 58 59 60 65 66 65 65 65 64 64 64 64 64
72 72 72 72 72 72 72 72 72 72 71 71 71 71 71 70 70 70 70 70 70 70 69 69 69 60 57 57 57 57 59 63 64 65 65 65 65 65 65 65 64 64
72 72 72 72 72 72 72 72 72 72 71 71 71 70 70 70 70 70 70 70 70 70 69 69 69 60 56 55 56 56 58 63 64 65 65 65 65 65 65 65 65 64
71 72 71 72 72 72 72 72 72 72 71 71 71 70 70 70 70 70 70 70 69 69 69 69 69 59 55 54 55 55 59 64 65 65 65 65 65 64 64 65 65 68
71 71 71 71 71 71 72 71 72 72 72 71 71 71 70 70 70 70 70 70 70 69 67 68 68 59 54 55 55 55 59 64 65 64 64 64 64 64 64 64 64 68
71 71 71 71 71 71 71 71 72 71 71 71 71 71 70 70 70 70 70 70 70 69 69 69 67 62 58 54 54 54 56 65 65 65 64 64 64 64 64 63 64 66

ECMWFNIL_sfc_dewp_036.txt.gz
Dewpoint
70 70 70 69 69 69 70 70 70 70 70 71 71 72 72 73 74 74 74 74 73 73 72 71 71 70 69 68 68 67 68 67 67 67 67 67 66 65 65 65 64 65
70 70 70 70 70 70 70 70 70 70 70 71 71 72 73 73 73 74 74 73 73 73 72 71 70 70 69 68 67 67 67 67 66 67 66 66 66 66 64 65 65 65
70 70 70 70 69 69 69 70 70 70 70 70 71 72 72 73 73 74 73 73 73 72 72 71 70 69 69 68 67 67 67 67 66 66 67 66 66 65 65 64 64 64
70 70 70 70 69 69 70 70 70 70 70 70 71 72 72 73 73 73 73 73 73 72 72 71 70 69 69 68 67 67 67 67 66 67 67 67 66 66 65 65 65 65
70 70 70 70 70 70 70 70 69 70 70 70 70 72 72 73 73 72 72 72 72 72 71 71 70 69 69 68 67 67 67 66 67 67 66 66 66 66 65 66 65 65
70 70 70 70 70 70 70 70 70 70 70 70 70 71 72 72 72 72 72 72 71 71 71 70 70 69 69 68 67 67 66 66 66 67 66 66 66 66 65 65 65 65
70 70 70 70 70 70 70 70 70 70 70 70 71 71 71 71 72 72 72 72 71 71 71 70 70 69 69 68 67 67 67 66 67 66 66 66 66 66 65 65 65 65
70 70 70 70 70 70 70 70 70 70 71 71 70 71 71 71 71 71 72 71 71 71 71 70 70 70 69 68 67 67 66 66 66 66 65 65 66 66 66 65 65 65
70 70 70 70 69 69 69 69 70 70 71 71 70 70 71 71 71 71 72 71 71 71 71 70 70 69 69 68 67 67 66 66 66 65 65 65 65 65 65 66 65 65
70 70 69 69 69 69 69 69 69 70 71 71 70 70 70 71 71 71 71 71 71 71 71 70 70 69 69 68 67 67 66 66 66 66 65 65 65 65 65 65 65 65
69 69 69 69 69 69 69 69 69 69 70 70 70 70 71 71 71 71 71 71 70 70 70 70 70 69 69 68 67 67 66 66 66 65 65 65 65 65 65 65 65 64
69 69 69 69 69 69 69 69 69 70 70 70 70 70 70 70 71 71 71 71 71 71 70 70 70 70 69 69 67 67 66 66 66 65 65 65 65 65 65 65 64 64
68 69 69 69 70 70 70 70 70 70 70 70 70 70 70 70 70 71 71 71 71 70 70 70 70 70 69 69 68 68 67 66 65 65 65 65 65 65 64 65 65 64
69 69 69 70 70 71 71 70 70 70 71 71 71 70 70 70 70 70 70 70 70 70 70 70 70 70 69 69 69 68 67 66 66 65 65 65 65 65 65 64 65 64
70 70 70 70 70 71 71 71 71 71 71 71 71 71 70 70 70 70 70 70 70 70 70 70 70 69 69 69 68 68 67 67 66 65 65 64 65 64 65 65 65 65
70 70 70 71 70 71 71 71 71 71 71 71 71 71 71 71 71 71 70 70 70 70 70 70 70 69 66 62 64 68 67 67 66 66 65 65 65 65 64 64 64 64
70 70 71 71 71 71 71 71 71 71 72 72 71 71 71 71 71 71 70 70 70 70 70 69 69 69 63 61 62 63 67 67 66 66 66 65 65 65 64 65 65 65
70 70 71 71 71 71 71 71 72 72 72 72 72 71 71 71 71 71 71 70 70 70 69 69 69 64 61 61 61 61 63 67 67 66 66 66 65 65 65 65 65 65
70 70 71 71 71 71 72 72 72 72 72 72 71 72 71 71 71 71 71 71 70 70 69 69 69 64 61 60 61 60 61 64 67 66 66 66 66 65 65 65 65 65
70 70 70 71 71 72 72 72 72 72 72 72 72 72 72 71 71 71 71 71 71 70 70 70 69 64 60 59 59 59 60 63 67 66 66 66 66 66 65 65 65 65
70 70 70 71 71 72 72 72 72 72 72 72 72 71 71 71 71 71 71 71 70 70 70 70 69 62 59 58 58 58 59 61 67 67 67 66 66 66 66 66 66 66
70 70 70 71 71 72 72 72 72 72 72 72 72 72 72 71 71 71 71 71 71 70 70 70 70 60 58 57 57 57 58 64 67 67 67 67 67 67 66 67 67 66
70 70 71 71 71 71 72 72 72 72 72 72 72 72 71 71 71 71 71 71 71 71 70 70 70 62 57 56 56 56 58 65 66 67 67 67 67 67 67 67 67 66
70 70 70 71 71 71 71 72 72 72 72 72 72 71 71 71 71 71 71 71 71 70 70 70 70 63 56 55 55 55 60 66 67 67 67 67 67 67 67 67 67 68
71 71 71 71 71 71 72 72 72 72 72 72 72 72 71 72 71 71 71 71 70 70 66 69 70 63 55 55 55 55 60 67 67 66 66 66 67 67 67 66 67 68
71 71 72 71 72 72 72 72 72 72 72 72 72 72 71 71 71 71 71 71 70 70 70 69 70 67 59 54 54 54 56 67 67 66 66 66 66 66 66 66 67 68

ECMWFNIL_sfc_dewp_042.txt.gz
Dewpoint
75 75 75 75 74 74 74 74 73 74 74 72 72 73 73 74 75 75 75 76 77 77 77 77 77 76 75 76 76 76 74 74 72 71 72 71 69 65 64 65 66 65
74 75 75 75 75 75 75 74 75 74 75 75 73 73 75 75 75 75 76 77 77 77 77 76 77 76 76 75 75 75 74 74 73 71 72 72 69 66 63 66 66 66
74 74 74 75 74 74 72 74 75 75 74 74 74 74 74 75 76 77 77 77 76 75 76 76 76 76 75 75 76 75 74 74 73 71 73 73 69 67 66 63 64 66
75 75 74 74 75 75 74 74 75 75 74 74 74 73 73 74 76 76 77 77 76 76 75 76 75 74 75 76 76 75 75 75 73 74 72 72 71 68 67 66 65 66
75 74 74 74 75 76 76 75 73 74 74 73 74 74 75 75 76 75 76 76 76 76 76 76 76 75 76 76 76 75 75 73 73 74 72 72 72 70 67 66 66 66
75 76 76 75 75 76 75 74 74 74 74 72 74 74 74 75 75 74 75 75 75 74 73 75 75 75 75 75 75 75 74 73 72 73 72 72 71 69 67 67 67 67
74 75 75 75 76 75 75 75 75 75 73 74 74 74 74 74 75 75 75 75 74 75 73 75 76 75 75 75 75 75 75 75 74 73 73 72 72 70 68 67 68 68
74 75 75 75 75 75 75 74 74 74 75 75 73 74 75 73 75 74 75 75 74 75 75 75 76 76 74 75 75 76 76 75 74 74 73 73 72 71 70 68 69 69
74 74 75 75 74 73 72 72 73 74 74 74 73 72 74 74 74 74 75 76 75 75 76 76 76 76 76 75 76 77 76 74 74 74 73 73 72 71 70 70 69 69
74 74 73 73 72 72 72 72 71 73 74 73 73 71 72 74 74 75 75 76 76 76 76 76 76 77 76 76 76 76 76 75 75 75 74 73 72 71 70 70 69 69
72 72 72 72 71 71 71 71 71 71 72 72 72 71 71 74 75 75 76 76 75 76 76 76 76 77 77 75 75 76 76 75 75 75 74 74 73 72 71 71 70 69
72 72 71 71 71 70 70 70 70 70 70 72 72 72 72 71 74 74 75 76 76 76 76 77 77 77 77 76 74 74 75 75 75 75 74 74 73 72 72 71 70 70
72 72 72 70 72 71 69 70 69 69 69 70 71 71 71 70 71 74 75 75 76 76 76 77 77 76 77 77 76 75 76 75 74 75 74 74 74 72 71 71 70 70
72 73 73 73 73 73 72 70 70 70 71 71 72 72 71 70 70 72 74 74 75 76 76 77 77 76 77 77 76 75 75 75 74 74 74 74 74 73 71 70 71 70
73 73 73 74 73 73 73 72 72 72 72 72 73 72 71 70 71 71 73 75 75 76 76 76 75 76 76 76 76 75 75 74 75 74 74 74 74 72 72 72 71 71
74 74 74 74 74 74 74 74 72 72 72 72 73 73 73 73 73 73 72 74 74 75 75 75 75 75 72 66 69 75 75 74 74 74 74 74 74 73 72 72 71 70
74 75 75 75 75 75 75 75 74 73 73 74 74 74 74 75 74 73 72 72 74 74 74 75 74 74 66 64 65 67 73 75 74 74 75 74 74 74 73 72 72 72
75 75 75 75 75 75 75 75 75 74 74 74 74 74 75 74 73 73 74 73 73 73 73 74 74 67 63 63 64 64 67 74 74 74 74 74 74 73 73 73 72 71
76 76 76 75 76 76 76 76 75 75 74 74 74 75 75 75 75 74 74 73 73 74 73 72 73 66 63 62 63 63 64 68 73 74 73 73 73 73 73 73 73 72
75 75 76 76 76 76 76 76 75 75 74 74 74 75 75 75 74 74 74 75 74 74 74 73 73 65 62 61 61 62 63 65 72 73 73 73 73 73 73 73 74 73
75 75 75 76 76 76 76 76 75 75 75 74 73 73 74 75 74 74 74 74 73 73 73 72 71 63 60 60 60 60 61 62 72 72 73 74 73 73 74 73 74 73
74 74 74 75 75 75 75 75 75 75 75 74 74 73 74 74 74 73 73 74 74 74 73 73 72 61 59 59 59 59 60 68 72 73 72 73 74 74 73 73 73 73
73 72 74 74 75 75 75 74 75 75 75 75 74 73 72 73 74 73 74 73 74 74 74 73 73 66 58 57 58 58 60 70 72 72 72 73 73 73 72 72 72 72
73 73 74 74 75 74 74 74 74 74 74 75 74 72 71 71 73 73 74 73 73 73 73 73 73 66 56 56 57 56 62 71 72 72 72 73 72 72 72 72 72 69
73 74 74 74 75 74 74 74 74 74 74 74 73 73 72 72 73 73 72 73 71 72 68 71 72 66 56 56 56 56 63 72 72 72 72 72 71 71 71 70 72 70
73 74 75 74 75 75 74 74 74 73 73 72 73 72 72 71 71 72 72 72 71 71 71 71 73 74 65 55 55 55 58 72 73 72 71 72 71 70 70 71 71 72

ECMWFNIL_sfc_dewp_045.txt.gz
Dewpoint
75 75 75 74 73 73 73 73 74 74 74 71 70 72 72 73 73 72 73 74 75 75 75 76 77 76 75 76 76 75 74 74 73 71 71 70 70 68 65 64 66 66
75 75 75 75 74 75 74 73 74 74 75 74 71 71 73 73 72 72 73 73 74 75 76 75 76 77 77 75 76 75 75 74 73 70 70 70 70 69 65 65 65 67
75 75 74 74 73 74 72 73 74 74 73 73 73 72 71 73 73 74 74 74 74 73 75 76 76 77 76 75 75 75 74 75 74 70 71 71 69 70 67 62 64 66
76 75 74 73 73 74 74 74 73 74 74 73 73 71 70 71 73 73 75 76 75 75 75 75 75 75 76 76 75 75 74 75 74 73 71 72 71 70 68 65 64 65
75 75 74 73 74 74 75 74 72 73 73 73 73 74 73 73 73 73 75 74 75 75 75 75 74 74 76 76 75 75 74 74 74 74 72 71 71 71 68 66 66 65
76 76 76 74 74 74 74 74 74 73 73 71 73 73 73 73 73 73 74 74 74 74 73 73 74 74 74 75 75 75 74 73 73 74 72 71 70 70 68 67 67 67
74 75 74 73 74 74 74 75 75 74 73 73 73 73 73 73 73 74 74 74 74 75 72 73 75 74 74 75 75 75 75 74 74 74 73 71 71 70 69 68 68 67
74 74 74 74 73 74 74 74 74 74 74 74 72 73 73 72 74 74 74 74 74 75 75 72 74 76 73 74 75 75 74 73 72 73 73 72 72 71 71 69 68 68
73 74 75 74 73 72 72 72 73 74 74 73 72 71 74 73 73 73 75 75 75 75 76 74 75 75 75 75 75 76 74 73 73 73 73 72 71 71 71 71 68 69
74 74 72 72 71 71 71 71 71 73 74 73 73 70 71 74 74 74 75 76 75 75 75 75 74 75 76 75 75 75 75 74 74 74 74 73 71 71 71 71 69 69
72 72 72 71 70 69 69 69 69 70 72 73 72 69 69 72 74 75 76 76 75 74 75 75 75 75 76 75 75 75 75 74 75 75 75 74 73 72 72 72 71 69
72 72 71 70 70 69 68 68 68 69 70 72 71 70 69 69 73 74 74 76 76 76 75 76 76 76 76 76 74 74 75 75 75 75 74 74 74 73 72 72 71 71
72 73 72 70 72 70 68 68 67 67 67 70 72 71 70 68 69 74 75 76 77 76 75 76 76 76 76 77 76 76 76 76 74 74 74 75 74 73 72 72 71 71
73 74 73 74 73 75 72 68 67 67 68 69 72 72 70 69 66 71 74 75 76 76 76 77 77 76 77 77 77 75 75 75 75 74 74 74 74 74 72 71 71 71
75 74 74 75 74 75 72 70 69 70 71 71 72 72 71 70 68 68 73 75 75 77 77 76 75 76 76 76 77 76 75 74 75 74 73 74 74 73 73 72 71 70
76 76 76 76 75 75 76 74 71 71 69 70 71 71 73 73 73 71 70 73 75 76 76 76 75 76 72 67 70 76 76 74 74 74 74 73 74 74 72 72 70 69
76 76 77 76 76 75 76 76 75 73 74 75 74 73 75 76 75 72 69 71 74 74 75 76 75 74 67 65 66 68 74 75 74 75 75 73 72 74 74 72 72 71
76 77 77 77 76 76 76 77 75 75 75 76 74 73 76 74 73 73 74 71 73 74 74 75 75 69 64 64 65 65 69 76 74 73 74 73 73 72 73 73 72 71
77 77 77 77 77 77 77 77 76 75 75 74 73 74 74 75 76 74 74 73 72 74 73 73 74 67 64 63 64 65 65 70 73 74 73 73 73 73 72 74 73 72
77 77 77 77 77 77 77 77 76 76 74 73 73 75 75 75 74 75 75 75 74 74 75 74 74 66 62 62 63 63 64 67 73 73 73 73 73 73 72 73 74 74
77 77 77 77 77 77 77 77 76 76 75 74 73 73 74 75 74 75 75 75 73 72 73 73 72 64 61 60 61 61 63 64 74 72 74 74 73 74 74 73 74 74
77 77 77 78 77 77 77 76 77 77 76 75 74 73 74 74 75 74 74 74 74 74 72 73 72 62 60 60 60 60 61 70 74 74 73 73 74 74 74 75 74 74
76 76 77 77 77 77 77 76 76 77 77 76 74 73 73 73 74 73 74 73 74 75 74 73 72 66 58 58 59 59 61 72 74 74 74 73 74 75 75 75 75 75
76 76 76 77 77 77 76 75 75 76 76 76 74 72 71 72 73 74 74 74 73 73 73 73 72 67 56 56 57 58 63 73 74 74 74 74 74 74 75 75 75 71
75 76 76 76 77 77 76 75 75 76 75 75 74 73 72 73 73 73 73 74 72 72 69 72 73 67 55 56 56 56 64 74 74 74 74 74 73 73 74 74 75 72
75 77 76 76 77 77 76 75 75 74 74 74 74 73 73 71 71 72 72 73 73 73 72 72 73 74 65 55 56 56 58 73 74 74 73 73 73 73 73 74 75 75

ECMWFNIL_sfc_dewp_048.txt.gz
Dewpoint
75 75 75 74 74 73 73 75 75 75 75 74 74 74 74 75 75 74 74 75 77 76 76 77 77 77 76 77 77 77 77 75 74 75 75 72 72 70 68 67 68 69
75 75 75 75 74 74 74 74 75 75 76 76 75 75 76 76 75 75 75 75 76 76 77 77 77 77 77 76 77 77 78 76 75 74 74 73 72 70 68 67 66 68
75 75 75 74 73 74 71 73 75 76 76 75 75 76 75 75 75 75 76 75 75 74 76 77 77 77 77 77 77 77 76 77 75 72 73 73 72 71 70 66 65 67
75 75 74 73 73 73 73 73 73 75 75 76 74 73 74 73 74 74 75 76 75 75 76 76 76 76 77 77 78 77 76 77 75 75 74 73 72 71 71 70 66 66
74 75 74 73 73 74 73 72 71 73 74 74 74 74 73 75 75 74 74 75 76 76 76 76 76 76 78 78 77 76 76 76 76 76 75 73 73 72 71 70 69 67
75 75 75 75 75 74 73 72 72 71 72 72 74 74 73 73 75 73 74 73 74 74 74 75 75 75 77 77 77 76 75 75 75 76 75 74 72 71 70 71 70 68
74 75 74 74 74 74 74 73 73 73 72 73 74 74 74 72 73 74 74 74 73 73 73 74 76 75 76 77 77 76 76 75 75 75 74 74 73 71 70 71 70 69
74 74 74 73 72 73 73 74 74 74 73 74 73 74 74 72 72 72 74 75 74 74 75 75 76 76 75 76 76 76 75 75 75 76 75 74 73 72 71 71 71 69
74 74 74 73 71 71 70 71 73 73 74 74 72 72 74 74 73 71 74 75 75 76 76 75 76 76 75 75 76 76 75 74 74 75 75 73 72 72 72 71 71 70
74 74 72 71 71 71 70 69 70 71 73 73 72 71 72 74 74 73 74 75 75 76 76 75 76 75 75 75 76 75 75 75 74 74 75 74 73 72 71 71 70 70
72 72 73 72 71 70 70 69 69 71 72 71 71 71 72 73 74 75 75 76 75 75 76 76 75 75 75 74 75 76 75 75 74 74 74 74 73 73 72 72 71 70
72 72 71 72 71 70 69 69 69 69 71 72 72 72 71 71 73 74 75 76 75 75 76 76 76 75 75 75 74 74 76 75 74 74 74 74 74 73 73 72 72 71
72 72 71 71 72 70 68 69 69 69 69 71 72 71 71 69 72 73 74 76 76 75 75 76 76 75 75 76 75 75 76 76 75 74 74 74 74 73 72 72 72 72
73 72 71 72 73 73 71 69 69 69 70 71 73 72 71 70 69 73 74 75 76 76 76 76 76 76 76 76 76 76 76 76 75 74 73 74 74 74 73 71 72 71
74 73 72 73 73 73 71 71 70 70 71 71 73 72 71 70 68 70 73 74 75 76 76 75 75 75 75 75 76 76 75 75 75 75 74 74 74 74 74 73 72 71
75 75 74 74 74 73 73 72 70 71 70 71 72 73 73 73 72 70 71 74 74 76 76 75 75 75 72 67 70 75 75 74 75 75 74 74 75 74 74 74 72 71
75 75 75 75 75 74 74 73 72 72 71 72 72 73 74 75 74 71 69 72 74 74 75 75 75 74 67 65 66 68 74 74 75 75 75 74 74 75 74 74 73 72
75 76 76 76 75 75 75 75 74 73 73 73 72 72 74 75 74 73 72 70 73 74 74 75 75 69 65 64 65 66 68 74 74 74 75 74 74 74 74 74 74 73
77 76 76 76 76 76 75 76 75 74 73 72 72 72 73 75 75 74 73 71 71 74 74 75 75 68 64 63 64 65 65 70 74 73 73 73 73 73 73 74 74 73
77 76 76 77 77 77 76 76 76 74 73 72 72 73 73 73 74 74 74 74 72 73 75 75 75 68 62 62 63 63 64 67 73 73 73 72 73 73 72 72 74 74
77 77 77 77 77 77 77 77 76 76 75 73 72 72 73 73 73 73 74 74 72 72 73 74 73 66 61 61 61 61 63 65 73 73 73 73 74 74 73 72 73 74
77 77 77 77 77 77 77 76 76 77 76 75 73 72 73 73 74 73 73 73 74 73 71 72 72 64 60 60 60 60 62 68 73 74 73 73 73 74 74 74 73 73
77 77 77 78 78 77 77 76 76 77 76 76 74 72 72 73 73 72 73 73 74 74 73 72 71 66 59 59 59 59 61 71 73 73 73 72 73 74 74 74 74 73
77 77 78 78 78 78 77 76 76 77 76 76 73 72 70 70 72 73 73 73 73 73 73 73 72 67 57 57 58 58 63 71 73 73 73 73 73 73 74 74 74 70
77 78 78 78 78 78 77 77 77 77 77 76 74 72 71 73 73 73 73 73 72 72 69 72 72 68 56 56 56 57 63 72 73 74 73 73 73 72 73 74 75 72
77 78 78 78 78 78 78 77 77 76 76 76 75 73 72 71 72 73 73 73 73 73 72 73 73 73 67 54 55 55 58 71 74 74 73 73 73 73 73 73 74 75